Location: Young's Pond
(41.2695°N, 72.7766°W)
Time: 23:27:27
(UTC-04:00)

Spot 4 - Visible Passes

Search period start: 24 June 2017 00:00
Search period end: 04 July 2017 00:00
Orbit: 706 x 722 km, 98.3° (Epoch: 24 June)

Date Brightness Start Highest point End Pass type
(mag) Time Alt. Az. Time Alt. Az. Time Alt. Az.
24 Jun 4.1 23:00:17 41° SE 23:01:41 57° ENE 23:06:28 10° N visible
25 Jun 5.9 00:39:25 15° W 00:40:00 15° W 00:42:52 10° NW visible
25 Jun 5.6 22:08:07 14° E 22:10:31 19° ENE 22:13:55 10° NNE visible
25 Jun 4.3 23:47:15 44° SW 23:48:04 49° W 23:52:49 10° NNW visible
26 Jun 4.3 22:55:05 37° ESE 22:56:33 51° ENE 23:01:16 10° N visible
27 Jun 5.8 00:34:13 17° W 00:34:48 17° W 00:38:01 10° NW visible
27 Jun 5.8 22:02:55 12° E 22:05:25 17° ENE 22:08:34 10° NNE visible
27 Jun 4.2 23:42:03 49° SW 23:42:55 56° W 23:47:43 10° NNW visible
28 Jun 4.4 22:49:54 34° ESE 22:51:25 45° ENE 22:56:04 10° N visible
29 Jun 5.7 00:29:02 19° WSW 00:29:36 20° W 00:33:07 10° NW visible
29 Jun 5.9 21:57:44 11° E 22:00:20 16° ENE 22:03:10 10° NNE visible
29 Jun 4.0 23:36:52 53° SSW 23:37:45 63° WSW 23:42:36 10° NNW visible
30 Jun 4.6 22:44:42 31° ESE 22:46:19 40° ENE 22:50:51 10° N visible
01 Jul 5.5 00:23:50 22° WSW 00:24:24 22° W 00:28:10 10° NW visible
01 Jul 6.0 21:52:48 10° E 21:55:15 14° ENE 21:57:43 10° NNE visible
01 Jul 3.9 23:31:41 56° SSW 23:32:36 72° WSW 23:37:29 10° NNW visible
02 Jul 4.8 22:39:32 28° ESE 22:41:12 36° ENE 22:45:38 10° N visible
03 Jul 5.4 00:18:40 24° WSW 00:19:12 25° W 00:23:12 10° NW visible
03 Jul 6.0 21:48:10 10° E 21:50:11 12° ENE 21:52:11 10° NE visible
03 Jul 3.8 23:26:31 58° S 23:27:27 81° WSW 23:32:21 10° NNW visible
